PHMAS LIPZ-EDSB

Flight info

Callsign PHMAS
Flight time 1h 24m
Altitude 24000
Route ROKIB DCT SAFFA DCT SONOM DCT NATOR DCT MOPAN Z141 KBA
Aircraft PC12/L-SDFGRWY/S

Departure

Time 2026-04-27 19:13
Airport Venice Marco Polo Airport (LIPZ)

Arrival

Time 2026-04-27 20:37
Airport Karlsruhe Baden-Baden Airport (EDSB)
Time Latitude Longitude Altitude Speed Heading
2026-04-27 18:54 45.49969 12.33774 12 ft 0 kts 314°
2026-04-27 19:08 45.49972 12.33763 12 ft 3 kts 270°
2026-04-27 19:08 45.49935 12.33771 12 ft 10 kts 137°
2026-04-27 19:08 45.49885 12.33836 12 ft 9 kts 152°
2026-04-27 19:09 45.49822 12.33823 11 ft 9 kts 194°
2026-04-27 19:09 45.49760 12.33802 12 ft 9 kts 193°
2026-04-27 19:09 45.49755 12.33800 12 ft 0 kts 193°
2026-04-27 19:11 45.49730 12.33798 12 ft 4 kts 153°
2026-04-27 19:11 45.49738 12.33843 12 ft 11 kts 42°
2026-04-27 19:12 45.49917 12.34075 10 ft 64 kts 44°
2026-04-27 19:12 45.50291 12.34625 151 ft 81 kts 40°
2026-04-27 19:12 45.50796 12.35181 285 ft 102 kts 41°
2026-04-27 19:12 45.51396 12.35814 524 ft 117 kts 40°
2026-04-27 19:13 45.51878 12.36854 761 ft 137 kts 55°
2026-04-27 19:13 45.52529 12.37904 1244 ft 144 kts 48°
2026-04-27 19:13 45.53239 12.38969 1721 ft 151 kts 48°
2026-04-27 19:13 45.53655 12.40296 2269 ft 151 kts 86°
2026-04-27 19:14 45.53546 12.41777 2759 ft 154 kts 98°
2026-04-27 19:14 45.53384 12.43293 3318 ft 155 kts 98°
2026-04-27 19:14 45.53227 12.44823 3926 ft 156 kts 98°
2026-04-27 19:14 45.53069 12.46367 4491 ft 158 kts 98°
2026-04-27 19:15 45.52910 12.47931 5056 ft 160 kts 98°
2026-04-27 19:15 45.52749 12.49512 5608 ft 162 kts 98°
2026-04-27 19:15 45.52585 12.51115 6161 ft 164 kts 99°
2026-04-27 19:15 45.52171 12.52610 6674 ft 165 kts 131°
2026-04-27 19:16 45.51212 12.53459 7202 ft 165 kts 168°
2026-04-27 19:16 45.50843 12.53531 7369 ft 165 kts 180°
2026-04-27 19:16 45.49366 12.52958 8034 ft 167 kts 202°
2026-04-27 19:16 45.47918 12.52160 8736 ft 170 kts 202°
2026-04-27 19:17 45.46808 12.51552 9258 ft 171 kts 204°
2026-04-27 19:17 45.45900 12.50485 9768 ft 172 kts 239°
2026-04-27 19:17 45.45617 12.49441 10107 ft 171 kts 262°
2026-04-27 19:17 45.45533 12.47739 10577 ft 172 kts 269°
2026-04-27 19:18 45.45481 12.46033 11084 ft 172 kts 269°
2026-04-27 19:18 45.45402 12.43765 11757 ft 173 kts 269°
2026-04-27 19:18 45.45360 12.42610 12110 ft 173 kts 269°
2026-04-27 19:18 45.45298 12.40895 12612 ft 174 kts 269°
2026-04-27 19:19 45.45236 12.39175 13122 ft 174 kts 269°
2026-04-27 19:19 45.45174 12.37472 13632 ft 175 kts 269°
2026-04-27 19:19 45.45111 12.35741 14111 ft 175 kts 269°
2026-04-27 19:19 45.45047 12.34007 14563 ft 176 kts 269°
2026-04-27 19:20 45.44983 12.32260 15012 ft 177 kts 269°
2026-04-27 19:20 45.44918 12.30508 15463 ft 177 kts 269°
2026-04-27 19:20 45.44852 12.28740 15888 ft 180 kts 269°
2026-04-27 19:20 45.44786 12.26937 16266 ft 184 kts 269°
2026-04-27 19:21 45.44718 12.25125 16643 ft 187 kts 269°
2026-04-27 19:21 45.44649 12.23271 17026 ft 189 kts 269°
2026-04-27 19:21 45.44578 12.21391 17403 ft 191 kts 269°
2026-04-27 19:21 45.44506 12.19471 17666 ft 198 kts 270°
2026-04-27 19:22 45.44431 12.17495 17932 ft 202 kts 269°
2026-04-27 19:22 45.44354 12.15475 18204 ft 205 kts 269°
2026-04-27 19:22 45.44279 12.13431 18457 ft 207 kts 271°
2026-04-27 19:22 45.44570 12.11487 18687 ft 205 kts 297°
2026-04-27 19:23 45.45495 12.09957 18929 ft 207 kts 322°
2026-04-27 19:23 45.46685 12.08794 19168 ft 208 kts 324°
2026-04-27 19:23 45.47896 12.07645 19407 ft 209 kts 324°
2026-04-27 19:23 45.49107 12.06480 19646 ft 210 kts 324°
2026-04-27 19:24 45.50318 12.05307 19890 ft 211 kts 324°
2026-04-27 19:24 45.51547 12.04116 20040 ft 216 kts 324°
2026-04-27 19:24 45.52803 12.02901 20166 ft 220 kts 324°
2026-04-27 19:24 45.54090 12.01655 20292 ft 225 kts 324°
2026-04-27 19:25 45.55402 12.00383 20420 ft 229 kts 324°
2026-04-27 19:25 45.56731 11.99095 20545 ft 233 kts 324°
2026-04-27 19:25 45.58077 11.97790 20669 ft 235 kts 324°
2026-04-27 19:25 45.59434 11.96474 20796 ft 237 kts 324°
2026-04-27 19:26 45.60785 11.95161 20923 ft 238 kts 324°
2026-04-27 19:26 45.62160 11.93825 21051 ft 239 kts 324°
2026-04-27 19:26 45.63540 11.92483 21178 ft 240 kts 324°
2026-04-27 19:26 45.64922 11.91138 21303 ft 241 kts 324°
2026-04-27 19:27 45.66305 11.89792 21432 ft 241 kts 324°
2026-04-27 19:27 45.67692 11.88440 21564 ft 241 kts 324°
2026-04-27 19:27 45.69081 11.87086 21691 ft 241 kts 324°
2026-04-27 19:27 45.70470 11.85732 21820 ft 242 kts 324°
2026-04-27 19:28 45.71862 11.84373 21952 ft 242 kts 324°
2026-04-27 19:28 45.73306 11.83209 22078 ft 241 kts 332°
2026-04-27 19:28 45.74842 11.82160 22214 ft 242 kts 332°
2026-04-27 19:28 45.76363 11.81116 22343 ft 242 kts 332°
2026-04-27 19:29 45.77862 11.80078 22465 ft 243 kts 332°
2026-04-27 19:29 45.79384 11.79024 22611 ft 243 kts 332°
2026-04-27 19:29 45.80908 11.77970 22745 ft 243 kts 332°
2026-04-27 19:29 45.82435 11.76913 22878 ft 242 kts 332°
2026-04-27 19:30 45.83955 11.75860 23017 ft 243 kts 332°
2026-04-27 19:30 45.85481 11.74803 23155 ft 243 kts 332°
2026-04-27 19:30 45.87005 11.73746 23289 ft 243 kts 332°
2026-04-27 19:30 45.88535 11.72690 23431 ft 244 kts 332°
2026-04-27 19:31 45.90067 11.71633 23569 ft 243 kts 332°
2026-04-27 19:31 45.91589 11.70581 23696 ft 243 kts 332°
2026-04-27 19:31 45.93084 11.69530 23812 ft 240 kts 329°
2026-04-27 19:31 45.94343 11.68007 23934 ft 236 kts 312°
2026-04-27 19:32 45.95445 11.66258 24051 ft 236 kts 311°
2026-04-27 19:32 45.96555 11.64497 24076 ft 240 kts 312°
2026-04-27 19:32 45.97692 11.62713 24079 ft 243 kts 312°
2026-04-27 19:32 45.98842 11.60909 24081 ft 246 kts 312°
2026-04-27 19:33 46.00000 11.59086 24076 ft 247 kts 312°
2026-04-27 19:33 46.00769 11.57873 24079 ft 248 kts 312°
2026-04-27 19:33 46.02330 11.55412 24079 ft 249 kts 312°
2026-04-27 19:33 46.03501 11.53565 24079 ft 250 kts 312°
2026-04-27 19:34 46.04651 11.51749 24081 ft 250 kts 312°
2026-04-27 19:34 46.05832 11.49882 24081 ft 250 kts 312°
2026-04-27 19:34 46.07004 11.48030 24086 ft 250 kts 312°
2026-04-27 19:34 46.08176 11.46175 24092 ft 250 kts 312°
2026-04-27 19:35 46.09345 11.44323 24096 ft 249 kts 312°
2026-04-27 19:35 46.10510 11.42478 24103 ft 249 kts 312°
2026-04-27 19:35 46.11672 11.40636 24115 ft 248 kts 312°
2026-04-27 19:35 46.12834 11.38793 24126 ft 249 kts 312°
2026-04-27 19:36 46.13997 11.36945 24135 ft 249 kts 312°
2026-04-27 19:36 46.15152 11.35111 24144 ft 249 kts 312°
2026-04-27 19:36 46.16322 11.33251 24150 ft 250 kts 312°
2026-04-27 19:36 46.17495 11.31386 24161 ft 251 kts 311°
2026-04-27 19:37 46.18653 11.29542 24170 ft 251 kts 312°
2026-04-27 19:37 46.19826 11.27674 24177 ft 251 kts 312°
2026-04-27 19:37 46.20998 11.25807 24185 ft 251 kts 311°
2026-04-27 19:37 46.22172 11.23943 24194 ft 251 kts 311°
2026-04-27 19:38 46.23344 11.22066 24207 ft 251 kts 311°
2026-04-27 19:38 46.24516 11.20188 24213 ft 251 kts 311°
2026-04-27 19:38 46.25687 11.18316 24215 ft 251 kts 311°
2026-04-27 19:38 46.26861 11.16439 24215 ft 252 kts 311°
2026-04-27 19:39 46.28035 11.14561 24212 ft 251 kts 311°
2026-04-27 19:39 46.29193 11.12705 24216 ft 251 kts 311°
2026-04-27 19:39 46.30364 11.10829 24212 ft 251 kts 311°
2026-04-27 19:39 46.31535 11.08950 24213 ft 251 kts 311°
2026-04-27 19:40 46.32705 11.07073 24214 ft 251 kts 311°
2026-04-27 19:40 46.33874 11.05196 24212 ft 251 kts 311°
2026-04-27 19:40 46.35042 11.03318 24215 ft 250 kts 311°
2026-04-27 19:40 46.36209 11.01441 24213 ft 250 kts 311°
2026-04-27 19:41 46.37371 10.99570 24207 ft 250 kts 311°
2026-04-27 19:41 46.38521 10.97717 24197 ft 251 kts 311°
2026-04-27 19:41 46.39686 10.95839 24187 ft 250 kts 311°
2026-04-27 19:41 46.40848 10.93965 24179 ft 250 kts 310°
2026-04-27 19:42 46.42007 10.92096 24177 ft 249 kts 311°
2026-04-27 19:42 46.43167 10.90222 24166 ft 249 kts 311°
2026-04-27 19:42 46.44319 10.88360 24155 ft 248 kts 310°
2026-04-27 19:42 46.45471 10.86496 24149 ft 248 kts 310°
2026-04-27 19:43 46.46613 10.84649 24136 ft 248 kts 310°
2026-04-27 19:43 46.47760 10.82791 24139 ft 248 kts 310°
2026-04-27 19:43 46.48914 10.80920 24126 ft 247 kts 310°
2026-04-27 19:43 46.50060 10.79061 24119 ft 247 kts 310°
2026-04-27 19:44 46.51208 10.77199 24114 ft 247 kts 310°
2026-04-27 19:44 46.52356 10.75335 24109 ft 249 kts 310°
2026-04-27 19:44 46.53511 10.73457 24091 ft 249 kts 310°
2026-04-27 19:44 46.54661 10.71587 24093 ft 248 kts 310°
2026-04-27 19:45 46.55808 10.69721 24096 ft 248 kts 310°
2026-04-27 19:45 46.56947 10.67865 24092 ft 249 kts 310°
2026-04-27 19:45 46.58111 10.65970 24100 ft 248 kts 310°
2026-04-27 19:45 46.59261 10.64093 24099 ft 249 kts 310°
2026-04-27 19:46 46.60400 10.62235 24097 ft 249 kts 310°
2026-04-27 19:46 46.61554 10.60350 24099 ft 250 kts 310°
2026-04-27 19:46 46.62709 10.58463 24095 ft 249 kts 310°
2026-04-27 19:46 46.63860 10.56581 24096 ft 249 kts 310°
2026-04-27 19:47 46.65011 10.54699 24099 ft 248 kts 309°
2026-04-27 19:47 46.66156 10.52824 24103 ft 248 kts 309°
2026-04-27 19:47 46.67309 10.50934 24104 ft 249 kts 310°
2026-04-27 19:47 46.68460 10.49046 24103 ft 249 kts 309°
2026-04-27 19:48 46.69612 10.47156 24103 ft 249 kts 310°
2026-04-27 19:48 46.70764 10.45265 24102 ft 250 kts 309°
2026-04-27 19:48 46.71901 10.43397 24104 ft 249 kts 310°
2026-04-27 19:48 46.73054 10.41500 24107 ft 250 kts 309°
2026-04-27 19:49 46.74254 10.39671 24106 ft 249 kts 314°
2026-04-27 19:49 46.75506 10.37929 24107 ft 249 kts 313°
2026-04-27 19:49 46.76751 10.36160 24118 ft 249 kts 313°
2026-04-27 19:49 46.78005 10.34396 24108 ft 251 kts 313°
2026-04-27 19:50 46.79265 10.32634 24107 ft 251 kts 313°
2026-04-27 19:50 46.80508 10.30893 24107 ft 251 kts 313°
2026-04-27 19:50 46.81764 10.29127 24111 ft 250 kts 313°
2026-04-27 19:50 46.83021 10.27360 24110 ft 250 kts 313°
2026-04-27 19:51 46.84273 10.25599 24111 ft 249 kts 313°
2026-04-27 19:51 46.85526 10.23836 24115 ft 250 kts 313°
2026-04-27 19:51 46.86779 10.22071 24112 ft 250 kts 313°
2026-04-27 19:51 46.88019 10.20322 24115 ft 250 kts 313°
2026-04-27 19:52 46.89275 10.18552 24120 ft 250 kts 313°
2026-04-27 19:52 46.90105 10.17380 24123 ft 251 kts 313°
2026-04-27 19:52 46.91779 10.15017 24126 ft 249 kts 313°
2026-04-27 19:52 46.93034 10.13243 24125 ft 251 kts 313°
2026-04-27 19:53 46.95516 10.09731 24124 ft 250 kts 313°
2026-04-27 19:53 46.96768 10.07958 24126 ft 251 kts 313°
2026-04-27 19:53 46.98022 10.06181 24123 ft 250 kts 313°
2026-04-27 19:54 46.99274 10.04406 24128 ft 251 kts 313°
2026-04-27 19:54 47.00515 10.02645 24124 ft 251 kts 313°
2026-04-27 19:54 47.01768 10.00866 24125 ft 251 kts 313°
2026-04-27 19:54 47.03022 9.99084 24130 ft 251 kts 313°
2026-04-27 19:55 47.04274 9.97304 24127 ft 250 kts 313°
2026-04-27 19:55 47.05524 9.95524 24129 ft 251 kts 313°
2026-04-27 19:55 47.06781 9.93735 24126 ft 252 kts 312°
2026-04-27 19:55 47.08037 9.91946 24124 ft 252 kts 312°
2026-04-27 19:56 47.09291 9.90157 24126 ft 251 kts 312°
2026-04-27 19:56 47.10544 9.88368 24127 ft 251 kts 312°
2026-04-27 19:56 47.11781 9.86602 24122 ft 251 kts 312°
2026-04-27 19:56 47.13033 9.84813 24125 ft 250 kts 312°
2026-04-27 19:57 47.14286 9.83021 24120 ft 250 kts 312°
2026-04-27 19:57 47.15532 9.81238 24123 ft 250 kts 312°
2026-04-27 19:57 47.16773 9.79460 24120 ft 249 kts 312°
2026-04-27 19:57 47.18017 9.77678 24123 ft 249 kts 312°
2026-04-27 19:58 47.19259 9.75897 24121 ft 249 kts 312°
2026-04-27 19:58 47.20482 9.74143 24114 ft 249 kts 312°
2026-04-27 19:58 47.21735 9.72344 24114 ft 249 kts 312°
2026-04-27 19:58 47.22973 9.70564 24116 ft 249 kts 312°
2026-04-27 19:59 47.24199 9.68802 24113 ft 249 kts 312°
2026-04-27 19:59 47.25438 9.67019 24110 ft 249 kts 312°
2026-04-27 19:59 47.26682 9.65227 24116 ft 249 kts 312°
2026-04-27 19:59 47.27921 9.63443 24115 ft 249 kts 311°
2026-04-27 20:00 47.29158 9.61658 24112 ft 249 kts 311°
2026-04-27 20:00 47.30393 9.59876 24110 ft 249 kts 311°
2026-04-27 20:00 47.31604 9.58128 24112 ft 248 kts 311°
2026-04-27 20:00 47.32868 9.56301 24106 ft 248 kts 311°
2026-04-27 20:01 47.34082 9.54547 24107 ft 248 kts 311°
2026-04-27 20:01 47.35315 9.52763 24106 ft 247 kts 311°
2026-04-27 20:01 47.36542 9.50986 24106 ft 247 kts 311°
2026-04-27 20:01 47.37766 9.49213 24113 ft 247 kts 311°
2026-04-27 20:02 47.38992 9.47435 24115 ft 247 kts 311°
2026-04-27 20:02 47.40220 9.45653 24111 ft 247 kts 311°
2026-04-27 20:02 47.41452 9.43865 24108 ft 247 kts 311°
2026-04-27 20:02 47.42680 9.42081 24110 ft 247 kts 311°
2026-04-27 20:03 47.43893 9.40317 24110 ft 248 kts 311°
2026-04-27 20:03 47.45122 9.38530 24115 ft 248 kts 311°
2026-04-27 20:03 47.46351 9.36740 24110 ft 248 kts 311°
2026-04-27 20:03 47.47580 9.34949 24112 ft 248 kts 311°
2026-04-27 20:04 47.48810 9.33157 24115 ft 248 kts 311°
2026-04-27 20:04 47.50040 9.31362 24114 ft 248 kts 311°
2026-04-27 20:04 47.51273 9.29562 24116 ft 248 kts 311°
2026-04-27 20:04 47.52085 9.28375 24116 ft 248 kts 311°
2026-04-27 20:05 47.53728 9.25974 24119 ft 248 kts 311°
2026-04-27 20:05 47.54953 9.24181 24117 ft 248 kts 311°
2026-04-27 20:05 47.56165 9.22407 24116 ft 248 kts 311°
2026-04-27 20:05 47.57393 9.20609 24117 ft 248 kts 311°
2026-04-27 20:06 47.58622 9.18806 24117 ft 248 kts 311°
2026-04-27 20:06 47.59846 9.17011 24119 ft 248 kts 311°
2026-04-27 20:06 47.61075 9.15207 24117 ft 248 kts 310°
2026-04-27 20:06 47.61887 9.14013 24120 ft 248 kts 310°
2026-04-27 20:07 47.63113 9.12211 24117 ft 248 kts 310°
2026-04-27 20:07 47.64344 9.10401 24112 ft 248 kts 310°
2026-04-27 20:07 47.66002 9.07958 23648 ft 256 kts 311°
2026-04-27 20:07 47.67267 9.06100 23236 ft 256 kts 311°
2026-04-27 20:08 47.68122 9.04842 22962 ft 256 kts 311°
2026-04-27 20:08 47.69384 9.02981 22563 ft 255 kts 311°
2026-04-27 20:08 47.70644 9.01119 22168 ft 255 kts 311°
2026-04-27 20:08 47.71885 8.99286 21782 ft 255 kts 311°
2026-04-27 20:09 47.73143 8.97427 21404 ft 255 kts 311°
2026-04-27 20:09 47.74401 8.95566 21018 ft 254 kts 311°
2026-04-27 20:09 47.75654 8.93710 20646 ft 254 kts 311°
2026-04-27 20:09 47.76907 8.91854 20267 ft 254 kts 311°
2026-04-27 20:10 47.78160 8.89996 19905 ft 254 kts 311°
2026-04-27 20:10 47.79412 8.88143 19543 ft 254 kts 311°
2026-04-27 20:10 47.80670 8.86291 19186 ft 254 kts 312°
2026-04-27 20:10 47.81925 8.84443 18830 ft 254 kts 312°
2026-04-27 20:11 47.83167 8.82608 18486 ft 254 kts 312°
2026-04-27 20:11 47.84425 8.80748 18091 ft 255 kts 312°
2026-04-27 20:11 47.85685 8.78884 17690 ft 255 kts 312°
2026-04-27 20:11 47.86942 8.77023 17294 ft 255 kts 312°
2026-04-27 20:12 47.88202 8.75158 16898 ft 255 kts 312°
2026-04-27 20:12 47.89460 8.73293 16486 ft 256 kts 313°
2026-04-27 20:12 47.90705 8.71447 16089 ft 256 kts 313°
2026-04-27 20:12 47.91968 8.69571 15690 ft 256 kts 313°
2026-04-27 20:13 47.93233 8.67693 15298 ft 256 kts 313°
2026-04-27 20:13 47.94495 8.65816 14908 ft 256 kts 313°
2026-04-27 20:13 47.95757 8.63939 14522 ft 256 kts 313°
2026-04-27 20:13 47.97021 8.62057 14142 ft 256 kts 313°
2026-04-27 20:14 47.98271 8.60197 13742 ft 252 kts 313°
2026-04-27 20:14 47.99512 8.58347 13318 ft 250 kts 313°
2026-04-27 20:14 48.00725 8.56536 12903 ft 249 kts 313°
2026-04-27 20:14 48.01946 8.54713 12494 ft 248 kts 313°
2026-04-27 20:15 48.03165 8.52892 12088 ft 247 kts 313°
2026-04-27 20:15 48.04380 8.51074 11685 ft 246 kts 313°
2026-04-27 20:15 48.05590 8.49265 11290 ft 246 kts 314°
2026-04-27 20:15 48.06799 8.47454 10894 ft 245 kts 314°
2026-04-27 20:16 48.08007 8.45644 10512 ft 245 kts 314°
2026-04-27 20:16 48.09211 8.43839 10130 ft 245 kts 314°
2026-04-27 20:16 48.10408 8.42043 9722 ft 244 kts 314°
2026-04-27 20:16 48.11607 8.40243 9302 ft 243 kts 314°
2026-04-27 20:17 48.12805 8.38442 8884 ft 243 kts 314°
2026-04-27 20:17 48.13977 8.36679 8482 ft 241 kts 314°
2026-04-27 20:17 48.15154 8.34908 8075 ft 239 kts 314°
2026-04-27 20:17 48.16323 8.33148 7680 ft 238 kts 314°
2026-04-27 20:18 48.17390 8.31308 7392 ft 230 kts 304°
2026-04-27 20:18 48.18279 8.29346 7146 ft 226 kts 303°
2026-04-27 20:18 48.19159 8.27408 6900 ft 224 kts 304°
2026-04-27 20:18 48.20040 8.25493 6651 ft 222 kts 304°
2026-04-27 20:19 48.20913 8.23594 6402 ft 220 kts 304°
2026-04-27 20:19 48.21779 8.21703 6145 ft 219 kts 304°
2026-04-27 20:19 48.22639 8.19823 5892 ft 218 kts 304°
2026-04-27 20:19 48.23493 8.17955 5639 ft 217 kts 304°
2026-04-27 20:20 48.24467 8.16262 5376 ft 214 kts 324°
2026-04-27 20:20 48.25775 8.15218 5127 ft 213 kts 335°
2026-04-27 20:20 48.27128 8.14300 4879 ft 214 kts 336°
2026-04-27 20:20 48.28485 8.13386 4622 ft 214 kts 336°
2026-04-27 20:21 48.29839 8.12467 4364 ft 214 kts 337°
2026-04-27 20:21 48.31196 8.11543 4119 ft 214 kts 337°
2026-04-27 20:21 48.32555 8.10657 3987 ft 209 kts 341°
2026-04-27 20:21 48.33873 8.09931 3980 ft 200 kts 341°
2026-04-27 20:22 48.35143 8.09168 3979 ft 193 kts 339°
2026-04-27 20:22 48.36358 8.08389 3979 ft 187 kts 339°
2026-04-27 20:22 48.37548 8.07626 3977 ft 185 kts 339°
2026-04-27 20:22 48.38721 8.06880 3975 ft 182 kts 339°
2026-04-27 20:23 48.39881 8.06137 3971 ft 180 kts 339°
2026-04-27 20:23 48.41021 8.05400 3969 ft 177 kts 339°
2026-04-27 20:23 48.42141 8.04668 3974 ft 176 kts 339°
2026-04-27 20:23 48.43267 8.03928 3973 ft 176 kts 338°
2026-04-27 20:24 48.44389 8.03188 3969 ft 176 kts 339°
2026-04-27 20:24 48.45501 8.02449 3968 ft 174 kts 338°
2026-04-27 20:24 48.46604 8.01712 3969 ft 172 kts 339°
2026-04-27 20:24 48.47695 8.00981 3969 ft 172 kts 337°
2026-04-27 20:25 48.48785 8.00248 3966 ft 171 kts 339°
2026-04-27 20:25 48.49865 7.99522 3968 ft 168 kts 338°
2026-04-27 20:25 48.50926 7.98807 3978 ft 167 kts 338°
2026-04-27 20:25 48.51846 7.97801 3976 ft 167 kts 314°
2026-04-27 20:26 48.52612 7.96472 3980 ft 168 kts 312°
2026-04-27 20:26 48.53377 7.95130 3978 ft 168 kts 312°
2026-04-27 20:26 48.54140 7.93792 3977 ft 168 kts 312°
2026-04-27 20:26 48.54904 7.92456 3978 ft 168 kts 312°
2026-04-27 20:27 48.55671 7.91119 3998 ft 168 kts 312°
2026-04-27 20:27 48.56494 7.89915 3992 ft 166 kts 334°
2026-04-27 20:27 48.57568 7.89795 3990 ft 148 kts 15°
2026-04-27 20:27 48.58535 7.90137 3982 ft 135 kts 25°
2026-04-27 20:28 48.59293 7.90732 3984 ft 113 kts 31°
2026-04-27 20:28 48.59936 7.91283 3981 ft 100 kts 33°
2026-04-27 20:28 48.60506 7.91789 3987 ft 91 kts 34°
2026-04-27 20:28 48.60864 7.92108 3982 ft 89 kts 34°
2026-04-27 20:29 48.61584 7.92770 3948 ft 93 kts 35°
2026-04-27 20:29 48.62126 7.93274 3833 ft 90 kts 35°
2026-04-27 20:29 48.62650 7.93762 3712 ft 87 kts 36°
2026-04-27 20:29 48.63154 7.94231 3600 ft 86 kts 36°
2026-04-27 20:30 48.63663 7.94704 3489 ft 85 kts 36°
2026-04-27 20:30 48.64160 7.95167 3384 ft 82 kts 37°
2026-04-27 20:30 48.64646 7.95623 3270 ft 82 kts 37°
2026-04-27 20:30 48.65131 7.96074 3162 ft 81 kts 38°
2026-04-27 20:31 48.65609 7.96519 3053 ft 80 kts 37°
2026-04-27 20:31 48.66080 7.96961 2945 ft 79 kts 38°
2026-04-27 20:31 48.66552 7.97401 2835 ft 80 kts 37°
2026-04-27 20:31 48.67021 7.97837 2738 ft 80 kts 37°
2026-04-27 20:32 48.67497 7.98283 2625 ft 81 kts 38°
2026-04-27 20:32 48.67974 7.98728 2519 ft 80 kts 38°
2026-04-27 20:32 48.68473 7.99195 2412 ft 91 kts 37°
2026-04-27 20:32 48.69047 7.99731 2282 ft 101 kts 36°
2026-04-27 20:33 48.69657 8.00301 2141 ft 102 kts 37°
2026-04-27 20:33 48.70252 8.00856 2010 ft 99 kts 36°
2026-04-27 20:33 48.70826 8.01395 1875 ft 96 kts 36°
2026-04-27 20:33 48.71390 8.01921 1745 ft 94 kts 36°
2026-04-27 20:34 48.71947 8.02441 1616 ft 94 kts 34°
2026-04-27 20:34 48.72500 8.02958 1490 ft 93 kts 33°
2026-04-27 20:34 48.73046 8.03471 1368 ft 93 kts 32°
2026-04-27 20:34 48.73591 8.03980 1237 ft 89 kts 32°
2026-04-27 20:35 48.74100 8.04456 1120 ft 84 kts 31°
2026-04-27 20:35 48.74582 8.04907 1015 ft 78 kts 31°
2026-04-27 20:35 48.75030 8.05328 911 ft 73 kts 29°
2026-04-27 20:35 48.75455 8.05724 811 ft 70 kts 28°
2026-04-27 20:36 48.75872 8.06086 698 ft 70 kts 32°
2026-04-27 20:36 48.76286 8.06492 605 ft 73 kts 32°
2026-04-27 20:36 48.76722 8.06906 521 ft 74 kts 32°
2026-04-27 20:36 48.77137 8.07306 411 ft 66 kts 32°
2026-04-27 20:37 48.77476 8.07625 409 ft 42 kts 32°
2026-04-27 20:37 48.77640 8.07778 408 ft 31 kts 32°
2026-04-27 20:37 48.77830 8.07954 408 ft 19 kts 30°
2026-04-27 20:37 48.77867 8.08061 408 ft 16 kts 111°
2026-04-27 20:38 48.77826 8.08162 409 ft 0 kts 127°
2026-04-27 20:38 48.77815 8.08194 409 ft 9 kts 121°
2026-04-27 20:39 48.77768 8.08309 409 ft 15 kts 121°
2026-04-27 20:39 48.77744 8.08416 409 ft 10 kts 57°
2026-04-27 20:39 48.77807 8.08482 409 ft 13 kts 33°
2026-04-27 20:39 48.77894 8.08566 409 ft 17 kts 31°
2026-04-27 20:40 48.77990 8.08662 409 ft 16 kts 32°
2026-04-27 20:40 48.78043 8.08729 409 ft 8 kts 88°
2026-04-27 20:40 48.78025 8.08780 409 ft 0 kts 120°